Meteo pe oră la Dzisna

Astăzi, 6 Martie, Sâmbătă

Timp Temperatura Precipitaţii Vânt Presiune Umiditate
00:00 -1°C° 0 mm 3 m/s 770 mmHg 78%
01:00 -2°C° 0 mm 3 m/s 770 mmHg 79%
02:00 -2°C° 0 mm 3 m/s 770 mmHg 79%
03:00 -2°C° 0 mm 3 m/s 769 mmHg 79%
04:00 -2°C° 0 mm 3 m/s 769 mmHg 78%
05:00 -2°C° 0 mm 3 m/s 769 mmHg 76%
06:00 -2°C° 0 mm 3 m/s 769 mmHg 74%
07:00 -2°C° 0 mm 3 m/s 769 mmHg 72%
08:00 -2°C° 0 mm 4 m/s 769 mmHg 69%
09:00 -1°C° 0 mm 4 m/s 769 mmHg 65%
10:00 +1°C° 0 mm 5 m/s 769 mmHg 61%
11:00 +1°C° 0 mm 5 m/s 769 mmHg 60%
12:00 +2°C° 0 mm 5 m/s 768 mmHg 58%
13:00 +3°C° 0 mm 6 m/s 768 mmHg 57%
14:00 +3°C° 0 mm 5 m/s 768 mmHg 63%
15:00 +2°C° 0 mm 5 m/s 767 mmHg 69%
16:00 +2°C° 0 mm 5 m/s 767 mmHg 75%
17:00 +2°C° 0 mm 5 m/s 767 mmHg 76%
18:00 +1°C° 0 mm 5 m/s 767 mmHg 78%
19:00 +1°C° 0 mm 6 m/s 766 mmHg 79%
20:00 +1°C° 0 mm 6 m/s 766 mmHg 78%
21:00 -1°C° 0 mm 6 m/s 766 mmHg 77%
22:00 -1°C° 0 mm 7 m/s 766 mmHg 75%
23:00 -1°C° 0 mm 7 m/s 766 mmHg 75%

Mâine, 7 Martie, Duminică

Timp Temperatura Precipitaţii Vânt Presiune Umiditate
00:00 -1°C° 0 mm 7 m/s 765 mmHg 75%
01:00 -1°C° 0 mm 7 m/s 765 mmHg 74%
02:00 -1°C° 0 mm 7 m/s 764 mmHg 76%
03:00 -1°C° 0 mm 7 m/s 764 mmHg 78%
04:00 -1°C° 0 mm 8 m/s 763 mmHg 80%
05:00 -2°C° 0 mm 7 m/s 763 mmHg 83%
06:00 -2°C° 0 mm 7 m/s 763 mmHg 85%
07:00 -2°C° 0 mm 7 m/s 763 mmHg 88%
08:00 -2°C° 0.1 mm 8 m/s 763 mmHg 88%
09:00 -2°C° 0.1 mm 8 m/s 762 mmHg 88%
10:00 -1°C° 0.1 mm 8 m/s 762 mmHg 88%
11:00 -1°C° 0 mm 8 m/s 762 mmHg 88%
12:00 -1°C° 0 mm 8 m/s 762 mmHg 87%
13:00 0°C° 0 mm 8 m/s 762 mmHg 86%
14:00 0°C° 0.1 mm 8 m/s 761 mmHg 87%
15:00 0°C° 0.1 mm 7 m/s 761 mmHg 88%
16:00 0°C° 0.1 mm 7 m/s 760 mmHg 89%
17:00 +1°C° 0.5 mm 6 m/s 760 mmHg 91%
18:00 +1°C° 0.5 mm 6 m/s 761 mmHg 93%
19:00 +1°C° 0.5 mm 5 m/s 761 mmHg 95%
20:00 0°C° 0.2 mm 4 m/s 761 mmHg 93%
21:00 0°C° 0.2 mm 3 m/s 761 mmHg 91%
22:00 +1°C° 0.2 mm 2 m/s 761 mmHg 89%
23:00 -1°C° 0 mm 2 m/s 761 mmHg 86%

Poimâine, 8 Martie, Luni

Timp Temperatura Precipitaţii Vânt Presiune Umiditate
00:00 -1°C° 0 mm 2 m/s 762 mmHg 83%
01:00 -1°C° 0 mm 2 m/s 762 mmHg 79%
02:00 -2°C° 0 mm 2 m/s 762 mmHg 77%
03:00 -2°C° 0 mm 2 m/s 762 mmHg 74%
04:00 -2°C° 0 mm 2 m/s 762 mmHg 72%
05:00 -2°C° 0 mm 2 m/s 762 mmHg 71%
06:00 -2°C° 0 mm 2 m/s 763 mmHg 70%
07:00 -2°C° 0 mm 2 m/s 763 mmHg 69%
08:00 -1°C° 0 mm 2 m/s 764 mmHg 63%
09:00 +2°C° 0 mm 2 m/s 764 mmHg 58%
10:00 +2°C° 0 mm 3 m/s 764 mmHg 52%
11:00 +3°C° 0 mm 2 m/s 764 mmHg 50%
12:00 +4°C° 0 mm 2 m/s 764 mmHg 48%
13:00 +4°C° 0 mm 2 m/s 765 mmHg 46%
14:00 +4°C° 0 mm 2 m/s 764 mmHg 48%
15:00 +3°C° 0 mm 2 m/s 764 mmHg 50%
16:00 +3°C° 0 mm 2 m/s 764 mmHg 52%
17:00 +2°C° 0 mm 2 m/s 764 mmHg 59%
18:00 -1°C° 0 mm 2 m/s 764 mmHg 67%
19:00 -2°C° 0 mm 2 m/s 764 mmHg 74%
20:00 -2°C° 0 mm 2 m/s 764 mmHg 76%
21:00 -3°C° 0 mm 2 m/s 764 mmHg 77%
22:00 -4°C° 0 mm 3 m/s 764 mmHg 79%
23:00 -4°C° 0 mm 3 m/s 764 mmHg 79%

9 Martie, Marţi

Timp Temperatura Precipitaţii Vânt Presiune Umiditate
00:00 -4°C° 0 mm 3 m/s 764 mmHg 78%
01:00 -4°C° 0 mm 3 m/s 764 mmHg 78%
02:00 -2°C° 0 mm 3 m/s 763 mmHg 76%
03:00 -2°C° 0 mm 3 m/s 763 mmHg 75%
04:00 -2°C° 0 mm 3 m/s 763 mmHg 73%
05:00 -2°C° 0 mm 3 m/s 762 mmHg 71%
06:00 -1°C° 0 mm 3 m/s 762 mmHg 70%
07:00 -1°C° 0 mm 3 m/s 762 mmHg 69%
08:00 -1°C° 0 mm 4 m/s 762 mmHg 69%
09:00 -1°C° 0 mm 4 m/s 762 mmHg 69%
10:00 0°C° 0 mm 4 m/s 762 mmHg 69%
11:00 0°C° 0.2 mm 4 m/s 762 mmHg 76%
12:00 0°C° 0.2 mm 4 m/s 762 mmHg 83%
13:00 0°C° 0.2 mm 4 m/s 762 mmHg 91%
14:00 0°C° 0.3 mm 4 m/s 761 mmHg 93%
15:00 +1°C° 0.3 mm 3 m/s 761 mmHg 95%
16:00 +1°C° 0.3 mm 3 m/s 760 mmHg 97%
17:00 +1°C° 0 mm 3 m/s 760 mmHg 97%
18:00 +1°C° 0 mm 3 m/s 760 mmHg 97%
19:00 +1°C° 0 mm 3 m/s 760 mmHg 97%
20:00 +1°C° 0 mm 3 m/s 760 mmHg 97%
21:00 +1°C° 0 mm 3 m/s 760 mmHg 97%
22:00 0°C° 0 mm 4 m/s 761 mmHg 97%
23:00 +1°C° 0.1 mm 3 m/s 760 mmHg 97%

10 Martie, Miercuri

Timp Temperatura Precipitaţii Vânt Presiune Umiditate
00:00 +1°C° 0.1 mm 3 m/s 760 mmHg 97%
01:00 +1°C° 0.1 mm 3 m/s 760 mmHg 97%
02:00 +2°C° 0.1 mm 3 m/s 760 mmHg 97%
03:00 +2°C° 0.1 mm 3 m/s 760 mmHg 97%
04:00 +2°C° 0.1 mm 3 m/s 760 mmHg 97%
05:00 +2°C° 0 mm 3 m/s 760 mmHg 97%
06:00 +2°C° 0 mm 3 m/s 760 mmHg 97%
07:00 +3°C° 0 mm 2 m/s 760 mmHg 97%
08:00 +2°C° 0 mm 3 m/s 760 mmHg 96%
09:00 +3°C° 0 mm 3 m/s 760 mmHg 94%
10:00 +3°C° 0 mm 3 m/s 761 mmHg 93%
11:00 +4°C° 0 mm 3 m/s 760 mmHg 88%
12:00 +5°C° 0 mm 3 m/s 760 mmHg 83%
13:00 +7°C° 0 mm 3 m/s 760 mmHg 78%
14:00 +6°C° 0 mm 4 m/s 759 mmHg 76%
15:00 +7°C° 0 mm 4 m/s 759 mmHg 74%
16:00 +7°C° 0 mm 4 m/s 759 mmHg 72%
17:00 +6°C° 0 mm 4 m/s 758 mmHg 76%
18:00 +5°C° 0 mm 4 m/s 758 mmHg 79%
19:00 +4°C° 0 mm 4 m/s 757 mmHg 83%
20:00 +4°C° 0 mm 4 m/s 757 mmHg 80%
21:00 +3°C° 0 mm 5 m/s 757 mmHg 78%
22:00 +3°C° 0 mm 5 m/s 756 mmHg 76%
23:00 +3°C° 0 mm 6 m/s 755 mmHg 78%

11 Martie, Joi

Timp Temperatura Precipitaţii Vânt Presiune Umiditate
00:00 +4°C° 0 mm 6 m/s 754 mmHg 79%
01:00 +4°C° 0 mm 7 m/s 753 mmHg 80%
02:00 +4°C° 0.4 mm 7 m/s 752 mmHg 84%
03:00 +4°C° 0.4 mm 7 m/s 752 mmHg 87%
04:00 +4°C° 0.4 mm 8 m/s 751 mmHg 90%
05:00 +4°C° 0.4 mm 8 m/s 750 mmHg 89%
06:00 +5°C° 0.4 mm 8 m/s 749 mmHg 87%
07:00 +5°C° 0.4 mm 8 m/s 749 mmHg 86%
08:00 +6°C° 0 mm 8 m/s 748 mmHg 83%
09:00 +6°C° 0 mm 9 m/s 748 mmHg 80%
10:00 +7°C° 0 mm 9 m/s 748 mmHg 77%
11:00 +7°C° 0.3 mm 9 m/s 748 mmHg 73%
12:00 +7°C° 0.3 mm 10 m/s 748 mmHg 69%
13:00 +8°C° 0.3 mm 10 m/s 748 mmHg 66%
14:00 +7°C° 0.2 mm 9 m/s 749 mmHg 67%
15:00 +6°C° 0.2 mm 8 m/s 749 mmHg 69%
16:00 +6°C° 0.2 mm 7 m/s 749 mmHg 70%
17:00 +5°C° 0.2 mm 7 m/s 750 mmHg 72%
18:00 +5°C° 0.2 mm 7 m/s 750 mmHg 75%
19:00 +4°C° 0.2 mm 6 m/s 751 mmHg 77%
20:00 +4°C° 0 mm 6 m/s 751 mmHg 77%
21:00 +3°C° 0 mm 6 m/s 752 mmHg 78%
22:00 +3°C° 0 mm 6 m/s 752 mmHg 79%
23:00 +3°C° 0 mm 6 m/s 752 mmHg 79%
Arată mai mult

Formular de consimțământ

Meteoprog și furnizorii noștri de servicii pot stoca și accesa date personale, precum cookies, identificatori de dispozitiv sau alte tehnologii similare pe dispozitivul dumneavoastră și procesa astfel de date pentru a personaliza conținutul și reclamele, dar și pentru a oferi caracteristici de social media și pentru a analiza traficul.

  • Stocarea și/sau accesarea informațiilor pe dispozitivul dumneavoastră

    Cookies, identificatori de dispozitiv sau alte informații pot fi stocate sau accesate pe dispozitiv în scopurile indicate mai sus.

  • Reclame și conținut personalizat, evaluarea reclamelor și a conținutului, informații despre audiențe și dezvoltarea produselor

    Reclamele și conținutul pot fi personalizate pe baza unui profil. Pot fi adăugate date suplimentare pentru a personaliza mai bine reclamele și conținutul. Performanța reclamelor și conținutului poate fi măsurată. Pot fi obținute informații despre utilizatorii care au văzut reclamele și conținutul. Aceste date pot fi utilizate pentru a dezvolta sau îmbunătăți experiența utilizatorilor, sistemele și software-ul.

Dând clic pe ‘Sunt de acord’, permiteți utilizarea cookie-urilor menționate, a identificatorilor de dispozitiv, balizelor web sau altor tehnologii similare. Setările pot fi modificate din browser-ul dispozitivului dumneavoastră.

În anumite scopuri, interesele legitime pot prima asupra consimțământului. Puteți citi mai multe informații în acest sens în Politica privind Confidențialitatea Datelor și Cookie.